GEFSGL_con_cape1000_282.txt.gz
Probability
52 48 35 39 42 35 35 26 23 16 16 16 13 10 10 13 13 16 19 19 19 19 19 16 16 16 10 10 10 6 10 6 6 6 6 6 3 3 3 3 0 3 3
45 45 39 35 39 32 29 26 23 19 23 23 19 16 19 26 19 19 23 23 16 16 16 16 16 16 10 10 10 10 10 10 10 6 6 6 6 3 3 3 3 3 3
48 45 35 32 39 35 35 23 26 29 26 23 16 23 23 23 26 19 23 19 19 16 16 16 19 16 13 10 10 10 13 13 13 13 6 6 6 3 3 3 3 3 3
45 42 39 35 26 26 29 23 29 26 29 23 23 26 26 26 26 26 19 19 19 19 16 16 16 16 16 16 13 13 13 13 10 10 10 10 6 3 3 3 3 3 3
45 39 35 32 29 26 26 26 23 29 23 29 26 23 29 29 26 16 19 16 13 16 16 13 13 16 19 19 16 16 13 13 10 10 10 6 3 3 6 3 6 3 3
39 39 32 32 32 29 26 26 29 29 26 26 26 26 26 26 23 13 19 23 19 10 13 16 16 16 16 13 13 10 10 10 13 13 3 3 3 3 3 3 3 3 3
35 39 39 35 29 32 29 29 26 26 26 26 23 23 23 23 13 6 6 16 16 16 13 13 13 13 13 13 10 6 6 6 3 3 3 3 3 3 3 3 3 3 3
39 35 35 32 29 32 29 29 26 32 29 23 23 23 19 23 10 6 3 6 16 16 16 13 13 13 13 13 13 10 6 6 3 0 3 3 3 3 3 0 0 0 0
42 39 35 29 23 29 29 29 29 26 32 29 23 19 23 19 13 3 3 6 13 10 13 13 13 10 10 10 10 10 10 6 6 0 0 0 0 0 0 0 0 0 0
39 35 35 32 26 26 23 29 26 23 26 26 23 23 23 23 13 6 3 10 10 13 10 13 10 6 10 6 6 10 10 10 6 3 3 0 0 0 0 0 0 0 0
35 32 39 35 35 32 23 23 26 23 26 26 23 19 19 19 16 6 3 6 13 6 10 16 16 13 0 0 0 3 10 10 10 3 6 3 0 0 0 0 0 0 0
26 35 35 35 35 29 29 29 26 29 32 29 23 23 19 16 16 10 3 3 6 10 19 19 13 3 0 0 0 3 3 3 0 3 6 6 3 0 0 0 3 0 0
29 32 32 35 29 32 29 23 23 23 26 23 26 26 23 19 19 16 0 0 0 0 10 10 3 0 0 0 0 0 0 0 0 0 3 6 6 6 3 0 0 0 0
32 32 29 32 32 29 29 26 23 29 29 23 23 23 19 19 19 16 6 0 0 0 0 0 0 0 0 0 0 0 0 0 3 3 0 0 3 0 3 3 3 6 6
29 29 39 42 32 32 23 19 23 26 26 23 23 23 16 16 10 6 6 3 0 0 0 0 0 0 0 3 0 0 0 0 3 3 0 0 3 3 3 3 3 3 6
26 29 32 29 29 29 16 13 10 13 6 6 10 13 13 10 6 3 3 3 0 0 0 0 0 0 0 0 0 3 3 6 6 6 3 3 3 3 3 3 0 0 0
26 26 26 26 23 16 19 19 19 6 3 3 0 0 3 6 0 0 0 0 0 0 0 0 0 0 0 0 6 6 10 10 6 10 13 6 6 6 3 3 3 3 0
23 19 16 16 13 10 13 16 19 19 13 6 3 0 0 0 0 0 0 0 0 0 0 0 0 6 6 6 6 10 10 13 10 10 10 6 6 3 3 6 6 3 0
19 19 16 16 10 10 13 13 13 13 13 10 6 3 0 0 0 0 0 0 3 0 0 0 3 6 3 3 3 3 3 3 6 6 10 6 6 6 6 6 3 0 0
13 16 19 13 10 10 10 13 13 10 10 10 6 3 0 0 0 0 0 0 3 3 3 3 3 3 0 3 0 0 3 3 3 6 3 3 6 6 6 6 0 3 0
13 16 13 16 10 10 13 13 16 13 13 13 10 6 0 0 3 3 0 0 3 3 3 0 0 0 0 0 0 0 0 3 3 3 0 0 6 3 3 3 0 0 0
13 13 13 16 13 13 13 13 13 13 16 13 10 0 0 3 3 3 3 3 0 0 0 0 0 0 0 0 0 0 0 0 3 0 0 0 3 3 3 0 0 0 0
10 13 13 10 13 13 13 10 13 13 13 13 3 3 3 3 3 0 0 0 0 0 0 0 0 0 0 0 0 0 0 0 0 0 0 3 0 0 0 0 0 0 0
10 10 10 13 13 16 16 10 10 10 10 6 6 0 0 0 0 0 3 0 0 0 3 3 3 3 3 3 0 0 0 0 0 0 0 0 0 0 0 0 0 0 0
6 10 6 10 10 13 16 13 13 10 6 3 3 0 0 0 0 0 0 0 0 0 3 3 3 3 3 3 3 3 0 0 0 0 0 0 0 0 0 0 0 0 0
0 6 10 6 10 13 13 6 10 10 10 3 3 3 0 0 0 0 0 0 0 0 0 0 0 0 0 0 0 0 0 0 0 0 0 0 0 0 0 0 0 0 0

GEFSGL_con_cape1000_288.txt.gz
Probability
16 13 16 16 13 16 13 6 13 13 13 13 13 10 10 6 10 13 13 16 13 13 13 16 16 16 16 13 13 6 6 6 6 6 6 6 10 10 6 10 6 6 6
19 16 16 13 13 10 10 13 13 10 13 13 16 10 3 6 10 10 10 13 13 10 10 13 13 13 13 10 13 13 13 6 10 10 10 10 13 10 10 10 3 3 6
19 23 16 13 10 10 10 10 10 13 13 10 13 10 10 10 6 6 10 13 10 10 13 13 13 13 13 13 6 6 6 10 10 13 13 13 13 10 6 3 3 6 3
23 23 23 23 13 6 6 6 10 10 10 10 13 10 16 16 13 10 6 10 10 10 13 10 10 10 10 10 10 6 6 10 10 10 10 13 10 10 6 6 6 6 6
19 23 26 19 16 10 10 10 10 6 10 13 13 13 13 16 13 13 10 13 10 10 10 10 10 10 10 10 10 10 6 10 10 10 10 6 6 6 6 10 6 10 6
23 23 19 23 10 13 16 16 16 13 16 16 13 13 13 16 10 6 6 13 13 13 13 10 13 6 6 3 3 6 6 13 13 10 10 10 10 6 6 3 3 3 3
26 23 19 19 23 16 19 13 16 16 19 23 16 13 13 6 6 6 3 10 13 16 10 10 6 10 10 16 10 3 3 0 3 13 13 10 10 6 6 6 3 3 3
23 16 16 16 19 19 19 19 16 19 19 19 23 16 13 6 3 3 3 6 6 13 10 10 10 10 10 13 13 13 10 10 6 6 6 6 6 6 6 6 6 3 3
29 23 19 13 16 16 16 19 23 16 16 16 19 16 13 13 3 0 0 3 6 6 13 13 10 13 10 3 3 13 13 10 10 6 6 6 3 3 3 3 3 3 3
29 29 23 19 23 13 13 13 16 16 16 16 16 16 13 16 6 3 0 3 3 6 10 10 3 3 3 3 3 10 13 10 10 10 10 0 0 0 0 3 3 3 3
35 26 23 19 16 16 13 13 13 13 13 16 16 10 10 16 10 3 0 3 6 6 6 13 10 0 0 0 0 3 6 10 10 10 6 6 6 6 3 0 0 0 3
29 26 16 16 16 16 13 13 13 16 16 16 10 10 10 16 10 6 3 0 3 6 6 13 13 0 0 0 0 0 0 0 3 3 6 6 3 10 3 3 0 0 0
26 23 23 19 16 13 19 13 13 13 16 13 13 13 16 10 10 3 0 0 0 3 10 6 3 0 0 0 0 0 0 0 0 6 6 6 3 3 3 6 6 3 0
19 19 19 19 6 10 13 13 13 13 13 13 13 13 16 16 16 6 6 0 0 0 3 3 0 0 0 0 0 0 0 0 3 6 6 6 3 0 3 3 6 6 3
16 19 19 19 16 13 6 6 6 6 16 10 10 13 13 10 10 10 10 6 6 3 3 0 0 0 0 0 0 0 0 0 0 3 6 3 6 0 0 0 0 3 3
19 19 19 16 16 16 19 10 3 3 3 3 3 6 6 6 3 0 0 0 0 0 0 3 3 3 3 3 3 3 0 0 3 6 6 3 3 3 3 3 0 0 0
13 10 13 16 13 13 10 16 10 6 3 3 0 0 0 0 0 0 0 0 0 0 0 6 6 3 3 3 3 3 3 3 3 0 3 3 3 3 3 3 3 3 3
10 10 6 10 6 6 10 13 10 13 10 10 0 0 0 0 0 0 0 0 0 0 0 6 6 3 3 3 6 3 3 0 0 0 0 3 3 3 3 3 6 6 3
10 10 13 6 6 6 6 6 6 6 6 10 6 6 0 0 0 0 0 0 3 3 0 3 6 6 6 3 3 3 6 6 3 3 3 3 3 6 6 6 6 6 3
10 6 6 6 6 10 10 6 6 6 6 6 10 10 0 0 0 0 0 0 0 3 3 3 3 3 3 6 3 0 0 0 0 3 3 6 6 6 6 6 6 6 6
10 6 3 6 10 10 10 6 6 6 10 10 10 6 3 0 0 0 3 0 0 3 6 3 3 3 3 0 0 0 0 0 0 0 0 0 0 3 3 3 3 3 6
10 10 6 10 16 13 13 10 6 10 10 10 10 6 0 3 6 6 6 0 0 0 0 3 3 0 0 0 0 0 0 0 0 0 0 0 0 3 3 3 3 0 0
6 6 10 10 13 13 10 13 13 13 13 10 10 10 6 3 6 3 3 3 3 0 0 3 3 0 0 0 0 0 0 0 0 0 0 0 3 3 3 3 0 0 0
3 3 6 6 10 10 16 16 16 13 13 13 13 6 3 3 0 0 0 0 0 0 0 0 0 0 0 3 0 0 0 0 0 0 0 0 3 0 3 3 0 0 0
0 3 3 3 6 3 10 16 13 13 13 10 10 6 3 0 0 0 0 0 0 0 0 0 3 3 3 3 0 0 0 0 0 0 0 0 3 3 0 0 0 0 0
3 3 3 3 0 3 6 6 10 6 6 10 6 6 0 0 0 0 0 0 0 0 0 0 3 3 3 0 0 0 0 0 0 0 0 0 0 0 0 0 0 0 0

GEFSGL_con_cape1000_294.txt.gz
Probability
68 68 68 65 65 68 65 65 58 58 58 48 45 42 42 42 42 48 39 42 42 42 35 39 45 39 32 29 29 29 26 23 19 19 23 29 23 19 16 19 16 19 13
65 68 68 65 65 65 65 68 58 58 58 55 42 42 42 32 42 42 39 39 39 35 32 32 29 29 39 29 26 23 23 23 23 23 23 23 29 29 26 23 16 13 16
65 65 68 68 65 65 61 61 61 61 55 52 48 42 42 32 42 45 32 39 35 35 35 35 32 29 32 19 35 29 26 23 29 23 16 26 26 19 23 16 13 23 13
68 68 68 65 65 68 58 58 58 58 52 48 45 45 42 39 39 39 39 39 39 39 39 39 35 32 29 29 26 26 23 26 26 23 23 19 26 23 19 13 13 16 13
65 65 61 61 65 61 58 58 58 55 45 52 52 45 45 42 29 35 39 35 39 42 42 39 32 26 26 26 23 29 26 26 26 26 26 26 23 23 19 19 13 10 13
55 61 61 61 58 55 55 55 52 45 45 48 52 48 42 26 23 16 23 35 39 35 35 32 32 32 16 3 6 10 19 23 26 26 29 29 29 26 26 23 13 13 16
55 55 55 48 52 48 45 48 45 45 45 45 45 39 35 29 13 3 0 26 35 39 39 35 26 23 26 29 10 0 0 0 3 26 26 29 29 29 29 29 32 23 19
58 52 48 48 45 42 42 42 48 48 48 52 52 45 52 35 16 0 0 16 23 35 39 35 32 32 26 35 35 26 26 26 19 13 23 32 29 32 35 32 32 29 26
58 55 55 48 42 42 42 39 42 48 45 48 45 48 55 42 16 0 0 32 32 29 26 32 32 32 29 6 32 35 35 35 16 6 13 16 10 13 16 23 29 19 19
61 55 58 58 52 45 45 52 42 45 42 45 42 42 55 48 16 6 0 26 29 26 32 29 19 19 19 3 26 29 32 32 32 19 16 10 13 13 3 19 29 29 16
55 58 58 58 52 52 48 45 52 42 42 42 42 48 48 48 26 6 3 32 26 23 23 26 26 6 0 0 0 26 26 26 29 29 29 29 26 29 26 26 32 26 23
55 55 55 58 48 35 48 45 48 45 48 45 48 45 42 39 19 10 3 0 10 26 26 19 23 3 0 0 0 6 3 3 16 23 26 19 19 19 23 26 29 29 32
61 61 65 58 55 42 42 39 42 45 35 29 32 39 35 35 32 6 0 0 0 10 23 13 3 0 0 0 0 0 0 6 16 16 23 23 23 23 23 26 26 23 19
55 58 61 61 55 52 52 42 32 29 26 29 35 29 29 32 32 29 10 0 0 3 3 10 0 0 0 0 0 0 0 10 13 16 16 19 19 23 19 16 13 13 16
55 52 58 48 52 48 45 45 35 39 23 35 29 26 23 23 16 10 16 16 13 10 10 16 16 16 13 13 16 16 16 13 13 19 16 16 26 23 19 19 23 13 13
45 45 45 35 39 39 39 35 10 13 3 3 6 3 10 3 0 0 0 0 0 0 3 13 16 19 16 16 16 19 16 16 13 16 16 13 13 16 13 19 13 16 13
32 35 26 23 26 29 26 23 19 10 0 0 0 0 0 0 0 0 0 0 0 0 0 13 13 19 16 13 16 16 19 19 19 13 16 16 16 13 13 13 13 16 13
23 23 23 23 19 23 26 29 29 29 32 13 0 0 0 0 0 0 0 0 0 0 10 13 13 16 16 19 19 16 19 19 19 19 13 13 13 13 16 13 13 10 10
23 26 29 26 26 26 32 32 29 26 26 26 13 3 0 0 0 0 0 3 6 6 6 10 13 16 16 19 19 16 19 19 19 19 19 19 13 13 13 16 13 10 10
23 19 19 26 26 19 19 19 23 26 23 19 13 13 3 0 3 3 3 6 10 10 10 10 10 13 13 23 23 16 16 19 19 16 16 16 13 10 10 6 13 10 10
13 10 10 19 23 26 23 19 23 23 19 13 13 13 3 6 6 6 6 6 10 10 10 10 10 13 16 13 16 19 13 19 16 16 16 13 10 10 6 10 6 6 6
16 16 16 16 19 19 23 26 23 19 19 13 13 13 3 10 10 10 10 6 6 10 3 6 6 10 13 10 13 13 13 13 19 16 13 13 10 6 6 6 6 3 6
16 16 13 13 16 10 19 19 19 19 16 16 10 19 13 13 16 13 13 10 6 3 3 6 6 3 13 10 13 13 10 10 10 16 13 10 10 3 3 3 0 0 0
16 13 13 13 10 13 10 16 16 16 19 13 10 13 19 19 16 16 16 10 13 6 10 3 6 6 10 10 10 10 10 6 10 16 13 6 6 0 0 0 0 0 0
13 6 3 3 0 6 10 13 13 10 3 10 6 3 10 10 13 19 16 13 10 10 6 13 13 10 16 10 6 6 3 3 0 6 13 6 0 0 0 0 0 0 0
13 10 10 3 3 10 10 13 6 3 3 3 3 6 6 10 13 13 13 13 10 6 6 10 6 13 13 13 10 3 0 0 0 0 0 0 0 0 0 0 0 0 0

GEFSGL_con_cape1000_300.txt.gz
Probability
68 71 71 68 68 71 71 71 68 71 65 58 52 48 48 45 48 58 55 52 48 52 48 45 42 55 52 35 45 39 35 35 23 29 23 26 26 29 10 16 10 6 6
65 68 68 71 68 71 71 74 71 65 61 61 55 58 52 52 58 61 52 45 42 48 52 48 45 39 45 52 42 39 29 39 29 26 26 29 26 29 23 23 10 10 10
68 68 68 71 65 71 74 74 68 61 61 65 61 58 52 55 61 61 55 45 48 42 48 52 52 48 45 42 42 35 29 16 29 26 29 32 23 23 29 26 19 16 10
65 61 68 68 68 74 74 71 68 68 71 71 65 58 52 58 61 65 55 42 45 48 48 48 45 45 48 42 35 39 32 29 29 29 19 19 23 29 32 32 26 26 19
65 65 58 58 58 61 74 68 68 68 68 71 65 58 58 58 45 58 48 39 48 48 45 39 39 35 35 29 19 35 32 29 26 26 19 19 19 23 32 29 26 23 23
61 61 61 61 61 61 68 65 61 65 68 71 58 55 55 32 23 16 26 42 45 48 45 45 32 32 19 13 13 10 13 29 26 26 26 23 19 23 23 23 19 23 16
61 61 65 61 61 61 55 58 61 61 61 58 55 55 52 39 13 6 10 35 39 45 42 42 35 26 26 32 23 6 6 3 3 23 23 23 26 19 26 26 19 16 19
58 61 61 61 58 55 58 61 58 61 58 55 55 48 52 32 6 3 3 19 48 42 45 42 42 32 26 29 26 26 32 26 10 3 19 26 23 26 26 26 26 26 26
55 58 61 58 61 58 55 61 61 58 58 55 55 48 45 35 6 0 0 23 48 42 35 35 32 32 16 16 23 29 32 29 16 3 6 13 16 10 10 16 19 13 16
52 58 58 58 55 55 58 61 58 58 58 55 52 55 48 39 10 0 0 16 35 35 42 32 16 16 13 10 19 32 32 26 23 19 0 0 0 6 0 13 13 13 13
52 58 58 55 55 55 58 61 61 58 58 58 55 52 52 39 19 3 0 16 35 32 26 26 19 6 0 0 3 23 23 19 19 16 23 23 19 19 16 10 19 16 13
55 55 55 52 52 48 52 55 58 58 55 55 58 55 55 48 26 10 0 0 10 26 32 19 10 0 0 0 0 3 6 3 19 23 23 26 19 19 19 16 23 19 19
48 48 52 52 52 48 48 48 58 61 58 55 52 45 45 48 32 6 0 0 0 6 16 10 6 0 0 0 0 0 0 3 13 19 19 16 23 23 26 19 16 23 23
48 52 45 48 48 58 55 55 52 52 48 45 42 35 39 45 42 16 13 0 0 0 0 3 0 0 0 0 0 0 0 0 10 16 16 16 26 26 29 26 16 16 16
55 48 45 45 39 39 45 45 48 45 48 42 42 39 29 35 16 13 10 3 3 6 3 3 3 3 6 13 10 13 13 10 13 19 19 19 23 23 23 23 16 13 10
48 55 52 42 39 39 32 32 23 26 10 3 6 6 13 3 0 0 0 0 0 0 3 6 6 6 6 16 16 13 10 13 10 16 16 16 23 19 16 16 19 13 10
45 48 45 42 32 32 35 32 35 16 0 0 0 0 0 0 0 0 0 0 0 0 3 6 13 13 13 16 16 10 13 13 16 16 19 19 19 13 13 16 13 13 10
29 19 29 32 29 29 29 35 39 29 26 19 0 0 0 0 0 0 0 0 0 0 3 3 3 6 13 19 16 13 13 13 16 16 16 13 13 16 16 10 10 10 10
16 16 23 23 19 23 26 32 29 35 26 23 19 6 0 0 0 0 0 3 3 3 3 6 6 6 10 10 16 13 13 13 10 13 16 16 16 13 13 10 10 10 6
23 10 6 13 16 13 23 29 26 32 29 19 19 6 0 0 0 0 0 0 6 6 6 6 6 6 13 13 10 13 10 6 10 16 16 19 16 16 10 6 6 6 6
10 6 6 10 16 13 19 26 26 29 29 26 19 10 0 0 3 6 3 3 3 6 6 6 10 13 13 13 10 6 10 10 10 10 10 16 13 13 10 10 6 6 6
10 10 10 19 16 23 16 19 16 19 26 26 19 10 0 6 10 10 10 6 6 10 10 10 10 13 13 10 10 10 10 10 13 13 10 10 16 16 13 10 10 6 3
10 6 13 10 16 19 16 13 13 19 19 26 19 13 3 3 10 16 16 13 13 13 13 10 6 10 10 10 10 6 6 6 6 6 6 10 10 10 6 10 10 6 6
6 10 10 13 16 16 13 13 10 13 16 16 19 16 10 13 13 13 13 10 10 10 13 13 10 13 10 10 3 3 3 3 3 3 3 6 6 6 6 6 10 6 6
6 6 6 13 10 10 10 10 10 10 6 6 10 13 10 10 10 16 6 6 6 10 10 10 10 10 10 6 6 6 0 0 0 0 3 3 3 3 6 6 6 3 3
6 6 10 10 10 13 13 13 6 6 6 6 6 13 10 13 10 10 6 10 6 6 6 10 10 10 13 6 6 3 0 0 0 0 0 0 0 3 3 3 3 0 3

GEFSGL_con_cape1000_306.txt.gz
Probability
48 48 48 42 45 42 35 39 35 29 23 23 23 23 19 16 19 16 10 13 13 10 10 13 13 10 10 6 3 0 0 0 0 0 0 0 3 0 3 3 3 3 3
48 48 52 48 42 39 39 42 42 26 19 23 23 23 23 19 16 16 13 16 16 10 10 10 13 13 10 6 6 3 3 0 0 3 3 0 0 0 0 0 6 6 3
45 45 52 52 45 45 39 42 39 26 23 23 23 23 23 16 16 16 13 16 16 13 13 13 13 13 13 10 6 6 3 3 3 3 3 3 3 3 3 3 3 6 6
45 48 52 45 42 42 35 35 35 23 23 16 16 16 19 13 13 16 13 13 6 13 13 13 13 10 10 10 10 10 10 3 3 3 3 3 3 3 3 3 3 3 3
39 39 42 39 32 39 45 39 35 29 26 23 19 13 10 10 13 13 10 10 10 10 10 13 13 13 10 3 3 3 6 10 6 6 3 3 3 3 3 6 6 6 3
35 35 29 32 35 39 42 35 39 32 26 19 23 23 19 19 10 10 10 10 6 3 6 13 13 10 10 6 6 0 3 6 6 3 3 3 3 3 6 6 3 6 3
35 32 32 32 32 32 35 35 35 32 32 32 29 26 23 16 10 6 6 3 6 3 3 10 10 10 6 10 6 6 3 0 0 3 3 3 3 3 3 0 3 3 6
29 29 32 35 32 35 29 32 35 32 32 26 23 29 29 19 16 6 6 0 3 3 10 10 13 10 10 6 3 3 0 0 0 0 3 3 3 3 3 3 6 6 3
39 35 32 32 32 26 29 29 26 23 26 23 23 19 16 19 16 6 3 0 0 6 6 6 6 6 6 3 3 3 3 3 3 0 0 0 0 0 0 0 0 0 3
35 32 35 35 32 32 29 26 26 19 23 23 19 23 19 19 16 6 3 0 3 6 6 6 3 3 3 3 3 3 3 6 6 6 0 0 0 0 0 0 0 0 0
29 29 32 35 35 29 29 19 19 19 23 23 23 19 23 16 16 16 0 3 10 6 6 6 3 3 0 0 0 0 3 3 3 3 6 3 0 0 0 0 0 0 3
26 29 29 26 29 26 29 26 23 23 19 23 23 23 19 16 13 13 0 0 0 3 3 3 3 3 0 0 0 0 0 0 0 0 3 6 3 3 0 0 0 3 3
26 29 26 26 23 26 26 26 26 26 23 26 23 19 19 19 13 0 0 0 0 0 3 3 3 0 0 0 0 0 0 0 0 0 3 3 6 3 3 0 0 0 0
23 26 26 26 23 23 26 26 26 23 23 26 23 19 13 13 13 10 10 0 0 0 0 0 0 0 0 0 0 0 0 0 0 0 0 3 3 3 3 0 0 0 3
23 23 23 23 23 19 19 26 23 19 19 23 19 16 13 16 19 6 3 3 3 0 0 0 0 0 0 3 3 3 0 0 0 0 3 3 0 3 3 3 0 0 0
13 13 16 16 19 19 19 19 19 16 10 0 0 6 13 6 0 0 0 0 0 0 0 0 0 3 3 3 3 3 3 3 0 0 0 3 3 3 3 3 3 3 0
13 10 10 13 13 13 13 13 10 6 0 0 0 0 0 0 0 0 0 0 0 0 0 0 0 0 0 0 0 3 3 3 3 3 0 3 3 3 3 0 0 3 3
10 10 10 10 10 13 10 10 10 10 6 6 0 0 0 0 0 0 0 0 0 0 0 0 0 0 0 0 0 0 0 0 0 0 3 3 6 6 6 6 3 3 3
10 10 10 6 6 6 10 10 10 10 10 3 3 0 0 0 0 0 0 0 0 0 0 0 0 0 0 0 0 3 3 3 6 3 0 0 6 6 3 3 3 3 3
10 10 6 6 3 3 3 6 10 10 6 6 3 3 0 0 0 0 0 0 0 0 0 0 0 0 0 3 3 3 3 6 6 6 6 6 6 3 6 6 6 3 3
10 6 3 3 6 3 3 3 3 6 3 3 6 3 0 0 0 0 0 0 0 0 0 3 3 3 3 3 3 3 6 6 6 6 6 6 3 3 3 3 6 6 3
10 6 6 6 3 3 3 3 3 3 6 3 3 3 0 0 0 0 0 0 0 0 3 3 3 3 3 6 6 6 6 6 3 3 3 3 3 3 3 3 0 0 0
6 3 3 3 3 0 0 0 0 0 0 3 3 3 3 0 0 0 0 0 0 3 3 3 3 0 0 0 3 6 6 6 6 3 3 3 3 3 3 3 0 0 0
6 6 3 0 0 0 0 0 0 0 0 0 0 3 3 3 3 0 0 0 0 0 0 0 0 0 0 0 3 3 3 3 3 3 3 3 3 3 3 0 0 0 0
3 3 3 0 0 0 0 0 0 0 0 0 0 0 3 3 3 3 0 0 0 0 0 0 0 0 0 3 3 3 3 0 0 0 3 3 0 0 0 0 0 0 0
0 0 0 3 0 0 0 0 0 0 0 0 0 0 6 3 3 3 0 0 0 0 0 0 0 0 0 3 3 3 0 0 0 0 0 0 0 0 0 0 0 0 0